#timestamp,LO_Frequency,Hit,StdDev 
1513116015.6,286047004.9,N
1513116035.5,286047004.7,N
1513116055.3,286047003.4,N
1513116075.2,286047007.2,Y
1513116095.9,286047004.1,P
1513116115.7,286047002.7,P
1513116135.6,286047001.3,N
1513116155.4,286046999.8,N
1513116175.2,286046998.1,N
1513116195.1,286047000.8,N
1513116196.0,286047000.8,N
1513116215.8,286046999.9,N
1513116235.7,286046998.1,N
1513116255.5,286047000.4,N
1513116275.3,286046999.0,N
1513116295.2,286046997.3,N
1513116315.0,286046997.6,N
1513116315.9,286046997.6,N
1513116335.8,286046997.7,N
1513116355.6,286046999.0,N
1513116375.4,286046996.9,N
1513116395.3,286046999.6,N
1513116415.1,286046994.2,N
1513116435.9,286046990.4,Y
1513116455.7,286046992.8,P
1513116475.5,286046994.9,N
1513116495.4,286046995.1,N
1513116515.2,286046997.8,N
1513116535.0,286046996.9,N
1513116536.0,286046996.9,N
1513116555.8,286047001.1,N
1513116575.6,286047000.7,N
1513116595.5,286046999.7,N
1513116615.3,286047002.7,N
1513116635.1,286047001.2,N
1513116655.9,286046996.7,N
1513116675.7,286046996.5,N
1513116695.6,286046997.0,N
1513116715.4,286046997.3,N
1513116735.2,286046995.8,N
1513116755.1,286046997.0,N
1513116756.0,286046997.0,N
1513116775.8,286046998.5,N
1513116795.7,286046999.6,N
1513116815.5,286046994.9,N
1513116835.3,286046997.9,N
1513116855.2,286046995.5,N
1513116875.0,286046996.1,N
1513116875.9,286046996.1,N
1513116895.8,286046995.7,N
1513116915.6,286046995.2,N
1513116935.4,286046991.7,Y
1513116955.3,286046992.1,P
1513116975.1,286046994.6,N
1513116995.9,286046994.1,N
1513117015.7,286046993.4,Y
1513117035.5,286047003.8,P
1513117055.4,286047002.5,N
1513117075.2,286047001.0,N
1513117095.0,286047003.7,N
1513117096.0,286047003.7,N
1513117115.8,286047003.3,N
1513117135.6,286047005.2,N
1513117155.5,286047003.3,N
1513117175.3,286047005.8,N
1513117195.1,286047007.5,N
1513117215.9,286047007.3,N
1513117235.7,286047006.9,N
1513117255.6,286047008.1,N
1513117275.4,286047008.8,N
1513117295.2,286047007.3,N
1513117315.1,286047006.9,N
1513117316.0,286047006.9,N
1513117335.8,286047008.4,N
1513117355.7,286047008.4,N
1513117375.5,286047010.5,Y
1513117395.3,286047001.8,P
1513117415.2,286046999.2,N
1513117435.0,286046995.2,N
1513117435.9,286046995.2,N
1513117455.8,286046997.6,N
1513117475.6,286046997.2,N
1513117495.4,286046997.3,N
1513117515.3,286046996.2,N
1513117535.1,286046996.0,N
1513117555.8,286046997.7,N
1513117575.7,286046999.0,N
1513117595.5,286047000.6,N
1513117615.4,286047000.0,N
1513117635.2,286047005.3,N
1513117655.0,286047003.0,N
1513117655.9,286047003.0,N
1513117675.8,286047006.0,N
1513117695.6,286047002.9,N
1513117715.5,286047003.3,N
1513117735.3,286047005.0,N
1513117755.1,286047006.6,N
1513117775.9,286047006.9,N
1513117795.7,286047006.7,N
1513117815.5,286047004.4,N
1513117835.4,286047003.5,N
1513117855.2,286047001.6,N
1513117875.1,286047001.5,N
1513117876.0,286047001.5,N
1513117895.8,286047000.5,N
1513117915.6,286046998.6,N
1513117935.5,286047000.8,N
1513117955.3,286047002.1,N
1513117975.2,286047003.9,N
1513117995.9,286047003.3,N
1513118015.7,286047001.3,N
1513118035.6,286047002.0,N
1513118055.4,286047004.0,N
1513118075.2,286047002.2,N
1513118095.1,286047002.2,N
1513118096.0,286047002.2,N
1513118115.8,286047001.3,N
1513118135.7,286047003.2,N
1513118155.5,286047000.4,N
1513118175.3,286046996.6,N
1513118195.2,286046994.9,N
1513118215.0,286046997.7,N
1513118215.9,286046997.7,N
1513118235.8,286046997.0,N
1513118255.6,286046999.6,N
1513118275.4,286047000.8,N
1513118295.3,286047002.5,N
1513118315.1,286047001.4,N
1513118335.8,286047005.5,N
1513118355.7,286047006.0,N
1513118375.5,286047003.1,N
1513118395.4,286047000.2,N
1513118415.2,286047000.2,N
1513118435.0,286046998.8,N
1513118435.9,286046998.8,N
1513118455.8,286046996.6,N
1513118475.6,286047001.4,N
1513118495.5,286047014.9,Y
1513118515.3,286047006.6,P
1513118535.1,286047005.3,N
1513118555.9,286047003.8,N
1513118575.7,286047004.3,N
1513118595.5,286047001.2,N
1513118615.4,286046998.8,N
1513118635.2,286046995.5,N
1513118655.1,286046993.4,N
1513118656.0,286046993.4,N
1513118675.8,286046993.5,N
1513118695.6,286046993.0,N
1513118715.5,286046994.8,N
1513118735.3,286046993.2,N
1513118755.2,286046990.8,N
1513118775.9,286046991.2,N
1513118795.7,286046988.9,N
1513118815.6,286046990.8,N
1513118835.4,286046992.1,N
1513118855.2,286046992.1,N
1513118875.1,286046994.3,N
1513118876.0,286046994.3,N
1513118895.8,286046992.0,N
1513118915.7,286046992.8,N
1513118935.5,286046989.1,N
1513118955.3,286046988.9,N
1513118975.2,286046988.9,N
1513118995.0,286046987.4,N
1513118995.9,286046987.4,N
1513119015.8,286046989.3,N
1513119035.6,286046987.1,N
1513119055.4,286046989.4,N
1513119075.3,286046988.9,N
1513119095.1,286046989.5,N
1513119115.8,286046989.0,N
1513119135.7,286046988.5,Y
1513119155.5,286046999.1,P
1513119175.4,286046998.7,N
1513119195.2,286046998.3,N
1513119215.0,286047001.1,N
1513119215.9,286047001.1,N
1513119235.8,286046999.9,N
1513119255.6,286047001.7,N
1513119275.5,286047002.0,N
1513119295.3,286047003.9,N
1513119315.1,286047001.4,N
1513119335.9,286047000.2,N
1513119355.7,286046998.2,N
1513119375.5,286046998.8,N
1513119395.4,286047004.1,N
1513119415.2,286047003.6,N
1513119435.1,286047003.0,N
1513119436.0,286047003.0,N
1513119455.8,286047001.6,N
1513119475.6,286046998.8,N
1513119495.5,286047000.9,N
1513119515.3,286047002.2,N
1513119535.2,286046999.7,N
1513119555.9,286047000.1,N
1513119575.7,286047000.2,N
1513119595.6,286047001.3,N
